Other Public Products
Issued by NWS Charleston, SC

Current Version | Previous Version | Text Only | Print | Product List | Glossary Off
Versions: 1 2 3 4 5 6 7 8 9 10 11 12 13 14 15 16 17 18 19 20 21 22 23 24 25 26 27 28 29 30 31 32 33 34 35 36 37 38 39 40 41 42 43 44 45 46 47 48 49 50
030 FPUS82 KCHS 191412 OPUCHS TEST...KCHS/KSAV Gateway Observations...TEST National Weather Service Charleston SC 1000 AM EDT SAT MAY 19 2018 NOTE: "fair" indicates few or no clouds below 12,000 feet with no significant weather and/or obstructions to visibility. SCZ050-WAZ558-NCZ071-TXZ119-213-PAZ071-DCZ001-FLZ074-172-MI076- NYZ176-178-MAZ016-IL014-TNZ027-NJZ106-GAZ044-MD014-191500- ...Gateway Observations for Charleston International... CITY SKY/WX TMP DP RH WIND PRES REMARKS Chas Airport LGT RAIN 75 73 93 SE6 30.10R FOG Seattle PTSUNNY 56 51 84 CALM 30.02S Charlotte PTSUNNY 73 68 84 S6 30.12S Dallas DFW CLOUDY 77 68 73 S15 29.84R Dallas Love CLOUDY 78 69 73 S15 29.85R Philladelphia LGT RAIN 54 53 97 E12 30.22F FOG Wash National LGT RAIN 60 57 89 N6 30.18S Baltimore LGT RAIN 58 58 100 NE7 30.17S FOG Miami CLOUDY 77 74 90 E10 30.05R Detroit CLOUDY 65 58 78 SE7 29.90F Newark LGT RAIN 52 51 97 E9 30.30S FOG Laguardia LGT RAIN 52 50 93 NE13 30.30F J F K LGT RAIN 53 53 100 E12 30.31F FOG Boston Logan PTSUNNY 53 43 68 E13 30.43S Ft. Lauderdale LGT RAIN 77 76 96 SE14 30.04R Chicago O`Hare CLOUDY 58 55 90 CALM 29.87F FOG Chicago Midway CLOUDY 58 57 97 CALM 29.87F FOG Houston Bush FAIR 80 72 76 S15 29.91R Houston Hobby FAIR 80 74 81 S17 29.91R Nashville FAIR 75 68 78 S7 29.99R Atlanta CLOUDY 73 69 87 S7 30.08R $$ GAZ044-118-TXZ119-213-NCZ071-DCZ001-MDZ014-506-PAZ021-071-NJZ106- NYZ176-178-MAZ106-OHZ011-021-055-MIZ076-KYZ091-ILZ014-INZ047- MNZ060-ONZ431-191500- ...Gateway Observations for Savannah International... CITY SKY/WX TMP DP RH WIND PRES REMARKS Savannah Arpt PTSUNNY 78 71 79 VRB3 30.09S Atlanta CLOUDY 73 69 87 S7 30.08R Charlotte PTSUNNY 73 68 84 S6 30.12S Dallas DFW CLOUDY 77 68 73 S15 29.84R Houston Bush FAIR 80 72 76 S15 29.91R Wash National LGT RAIN 60 57 89 N6 30.18S Wash Dulles LGT RAIN 55 55 100 NW8 30.18S FOG Baltimore LGT RAIN 58 58 100 NE7 30.17S FOG Philadelphia LGT RAIN 54 53 97 E12 30.22F FOG Newark LGT RAIN 52 51 97 E9 30.30S FOG Laguardia LGT RAIN 52 50 93 NE13 30.30F J F K LGT RAIN 53 53 100 E12 30.31F FOG Boston PTSUNNY 53 43 68 E13 30.43S Pittsburg LGT RAIN 61 57 87 SE7 30.04R Akron CLOUDY 67 58 72 S16 29.99F Cleveland PTSUNNY 68 60 75 S14 29.96F Cincinnati CLOUDY 68 66 93 S7 29.93S Columbus PTSUNNY 74 65 74 MISG 29.94F Detroit CLOUDY 65 58 78 SE7 29.90F Chicago O`Hare CLOUDY 58 55 90 CALM 29.87F FOG Minneapolis CLOUDY 58 53 84 NW8 29.89F Indianapolis CLOUDY 70 67 90 S9 29.89R Toronto Canada LGT RAIN 55 54 94 SE6 30.01F $$

USA.gov is the U.S. government's official web portal to all federal, state and local government web resources and services.